Year,Month,Day,Hour,Minute,Value (Times are PST for insolation in W/m^2)
2016,04,23,00,00,0.00
2016,04,23,00,01,0.00
2016,04,23,00,02,0.00
2016,04,23,00,03,0.00
2016,04,23,00,04,0.00
2016,04,23,00,05,0.00
2016,04,23,00,06,0.00
2016,04,23,00,07,0.00
2016,04,23,00,08,0.00
2016,04,23,00,09,0.00
2016,04,23,00,10,0.00
2016,04,23,00,11,0.00
2016,04,23,00,12,0.00
2016,04,23,00,13,0.00
2016,04,23,00,14,0.00
2016,04,23,00,15,0.00
2016,04,23,00,16,0.00
2016,04,23,00,17,0.00
2016,04,23,00,18,0.00
2016,04,23,00,19,0.00
2016,04,23,00,20,0.00
2016,04,23,00,21,0.00
2016,04,23,00,22,0.00
2016,04,23,00,23,0.00
2016,04,23,00,24,0.00
2016,04,23,00,25,0.00
2016,04,23,00,26,0.00
2016,04,23,00,27,0.00
2016,04,23,00,28,0.00
2016,04,23,00,29,0.00
2016,04,23,00,30,0.00
2016,04,23,00,31,0.00
2016,04,23,00,32,0.00
2016,04,23,00,33,0.00
2016,04,23,00,34,0.00
2016,04,23,00,35,0.00
2016,04,23,00,36,0.00
2016,04,23,00,37,0.00
2016,04,23,00,38,0.00
2016,04,23,00,39,0.00
2016,04,23,00,40,0.00
2016,04,23,00,41,0.00
2016,04,23,00,42,0.00
2016,04,23,00,43,0.00
2016,04,23,00,44,0.00
2016,04,23,00,45,0.00
2016,04,23,00,46,0.00
2016,04,23,00,47,0.00
2016,04,23,00,48,0.00
2016,04,23,00,49,0.00
2016,04,23,00,50,0.00
2016,04,23,00,51,0.00
2016,04,23,00,52,0.00
2016,04,23,00,53,0.00
2016,04,23,00,54,0.00
2016,04,23,00,55,0.00
2016,04,23,00,56,0.00
2016,04,23,00,57,0.00
2016,04,23,00,58,0.00
2016,04,23,00,59,0.00
2016,04,23,01,00,0.00
2016,04,23,01,01,0.00
2016,04,23,01,02,0.00
2016,04,23,01,03,0.00
2016,04,23,01,04,0.00
2016,04,23,01,05,0.00
2016,04,23,01,06,0.00
2016,04,23,01,07,0.00
2016,04,23,01,08,0.00
2016,04,23,01,09,0.00
2016,04,23,01,10,0.00
2016,04,23,01,11,0.00
2016,04,23,01,12,0.00
2016,04,23,01,13,0.00
2016,04,23,01,14,0.00
2016,04,23,01,15,0.00
2016,04,23,01,16,0.00
2016,04,23,01,17,0.00
2016,04,23,01,18,0.00
2016,04,23,01,19,0.00
2016,04,23,01,20,0.00
2016,04,23,01,21,0.00
2016,04,23,01,22,0.00
2016,04,23,01,23,0.00
2016,04,23,01,24,0.00
2016,04,23,01,25,0.00
2016,04,23,01,26,0.00
2016,04,23,01,27,0.00
2016,04,23,01,28,0.00
2016,04,23,01,29,0.00
2016,04,23,01,30,0.00
2016,04,23,01,31,0.00
2016,04,23,01,32,0.00
2016,04,23,01,33,0.00
2016,04,23,01,34,0.00
2016,04,23,01,35,0.00
2016,04,23,01,36,0.00
2016,04,23,01,37,0.00
2016,04,23,01,38,0.00
2016,04,23,01,39,0.00
2016,04,23,01,40,0.00
2016,04,23,01,41,0.00
2016,04,23,01,42,0.00
2016,04,23,01,43,0.00
2016,04,23,01,44,0.00
2016,04,23,01,45,0.00
2016,04,23,01,46,0.00
2016,04,23,01,47,0.00
2016,04,23,01,48,0.00
2016,04,23,01,49,0.00
2016,04,23,01,50,0.00
2016,04,23,01,51,0.00
2016,04,23,01,52,0.00
2016,04,23,01,53,0.00
2016,04,23,01,54,0.00
2016,04,23,01,55,0.00
2016,04,23,01,56,0.00
2016,04,23,01,57,0.00
2016,04,23,01,58,0.00
2016,04,23,01,59,0.00
2016,04,23,02,00,0.00
2016,04,23,02,01,0.00
2016,04,23,02,02,0.00
2016,04,23,02,03,0.00
2016,04,23,02,04,0.00
2016,04,23,02,05,0.00
2016,04,23,02,06,0.00
2016,04,23,02,07,0.00
2016,04,23,02,08,0.00
2016,04,23,02,09,0.00
2016,04,23,02,10,0.00
2016,04,23,02,11,0.00
2016,04,23,02,12,0.00
2016,04,23,02,13,0.00
2016,04,23,02,14,0.00
2016,04,23,02,15,0.00
2016,04,23,02,16,0.00
2016,04,23,02,17,0.00
2016,04,23,02,18,0.00
2016,04,23,02,19,0.00
2016,04,23,02,20,0.00
2016,04,23,02,21,0.00
2016,04,23,02,22,0.00
2016,04,23,02,23,0.00
2016,04,23,02,24,0.00
2016,04,23,02,25,0.00
2016,04,23,02,26,0.00
2016,04,23,02,27,0.00
2016,04,23,02,28,0.00
2016,04,23,02,29,0.00
2016,04,23,02,30,0.00
2016,04,23,02,31,0.00
2016,04,23,02,32,0.00
2016,04,23,02,33,0.00
2016,04,23,02,34,0.00
2016,04,23,02,35,0.00
2016,04,23,02,36,0.00
2016,04,23,02,37,0.00
2016,04,23,02,38,0.00
2016,04,23,02,39,0.00
2016,04,23,02,40,0.00
2016,04,23,02,41,0.00
2016,04,23,02,42,0.00
2016,04,23,02,43,0.00
2016,04,23,02,44,0.00
2016,04,23,02,45,0.00
2016,04,23,02,46,0.00
2016,04,23,02,47,0.00
2016,04,23,02,48,0.00
2016,04,23,02,49,0.00
2016,04,23,02,50,0.00
2016,04,23,02,51,0.00
2016,04,23,02,52,0.00
2016,04,23,02,53,0.00
2016,04,23,02,54,0.00
2016,04,23,02,55,0.00
2016,04,23,02,56,0.00
2016,04,23,02,57,0.00
2016,04,23,02,58,0.00
2016,04,23,02,59,0.00
2016,04,23,03,00,0.00
2016,04,23,03,01,0.00
2016,04,23,03,02,0.00
2016,04,23,03,03,0.00
2016,04,23,03,04,0.00
2016,04,23,03,05,0.00
2016,04,23,03,06,0.00
2016,04,23,03,07,0.00
2016,04,23,03,08,0.00
2016,04,23,03,09,0.00
2016,04,23,03,10,0.00
2016,04,23,03,11,0.00
2016,04,23,03,12,0.00
2016,04,23,03,13,0.00
2016,04,23,03,14,0.00
2016,04,23,03,15,0.00
2016,04,23,03,16,0.00
2016,04,23,03,17,0.00
2016,04,23,03,18,0.00
2016,04,23,03,19,0.00
2016,04,23,03,20,0.00
2016,04,23,03,21,0.00
2016,04,23,03,22,0.00
2016,04,23,03,23,0.00
2016,04,23,03,24,0.00
2016,04,23,03,25,0.00
2016,04,23,03,26,0.00
2016,04,23,03,27,0.00
2016,04,23,03,28,0.00
2016,04,23,03,29,0.00
2016,04,23,03,30,0.00
2016,04,23,03,31,0.00
2016,04,23,03,32,0.00
2016,04,23,03,33,0.00
2016,04,23,03,34,0.00
2016,04,23,03,35,0.00
2016,04,23,03,36,0.00
2016,04,23,03,37,0.00
2016,04,23,03,38,0.00
2016,04,23,03,39,0.00
2016,04,23,03,40,0.00
2016,04,23,03,41,0.00
2016,04,23,03,42,0.00
2016,04,23,03,43,0.00
2016,04,23,03,44,0.00
2016,04,23,03,45,0.00
2016,04,23,03,46,0.00
2016,04,23,03,47,0.00
2016,04,23,03,48,0.00
2016,04,23,03,49,0.00
2016,04,23,03,50,0.00
2016,04,23,03,51,0.00
2016,04,23,03,52,0.00
2016,04,23,03,53,0.00
2016,04,23,03,54,0.00
2016,04,23,03,55,0.00
2016,04,23,03,56,0.00
2016,04,23,03,57,0.00
2016,04,23,03,58,0.00
2016,04,23,03,59,0.00
2016,04,23,04,00,0.00
2016,04,23,04,01,0.00
2016,04,23,04,02,0.00
2016,04,23,04,03,0.00
2016,04,23,04,04,0.00
2016,04,23,04,05,0.00
2016,04,23,04,06,0.00
2016,04,23,04,07,0.00
2016,04,23,04,08,0.00
2016,04,23,04,09,0.00
2016,04,23,04,10,0.00
2016,04,23,04,11,0.00
2016,04,23,04,12,0.00
2016,04,23,04,13,0.00
2016,04,23,04,14,0.00
2016,04,23,04,15,0.00
2016,04,23,04,16,0.00
2016,04,23,04,17,0.00
2016,04,23,04,18,0.00
2016,04,23,04,19,0.00
2016,04,23,04,20,0.00
2016,04,23,04,21,0.00
2016,04,23,04,22,0.00
2016,04,23,04,23,0.00
2016,04,23,04,24,0.00
2016,04,23,04,25,0.00
2016,04,23,04,26,0.00
2016,04,23,04,27,0.00
2016,04,23,04,28,0.00
2016,04,23,04,29,0.00
2016,04,23,04,30,0.00
2016,04,23,04,31,0.00
2016,04,23,04,32,0.00
2016,04,23,04,33,0.00
2016,04,23,04,34,0.00
2016,04,23,04,35,0.00
2016,04,23,04,36,0.00
2016,04,23,04,37,0.00
2016,04,23,04,38,0.00
2016,04,23,04,39,0.00
2016,04,23,04,40,0.00
2016,04,23,04,41,0.00
2016,04,23,04,42,0.00
2016,04,23,04,43,0.00
2016,04,23,04,44,0.00
2016,04,23,04,45,0.00
2016,04,23,04,46,0.00
2016,04,23,04,47,0.00
2016,04,23,04,48,0.00
2016,04,23,04,49,0.00
2016,04,23,04,50,0.00
2016,04,23,04,51,0.00
2016,04,23,04,52,0.00
2016,04,23,04,53,0.00
2016,04,23,04,54,0.00
2016,04,23,04,55,0.00
2016,04,23,04,56,0.00
2016,04,23,04,57,0.00
2016,04,23,04,58,0.00
2016,04,23,04,59,0.00
2016,04,23,05,00,0.00
2016,04,23,05,01,0.00
2016,04,23,05,02,0.00
2016,04,23,05,03,0.00
2016,04,23,05,04,0.00
2016,04,23,05,05,0.00
2016,04,23,05,06,0.00
2016,04,23,05,07,0.00
2016,04,23,05,08,0.00
2016,04,23,05,09,0.00
2016,04,23,05,10,0.00
2016,04,23,05,11,0.00
2016,04,23,05,12,0.00
2016,04,23,05,13,0.00
2016,04,23,05,14,0.00
2016,04,23,05,15,0.00
2016,04,23,05,16,0.00
2016,04,23,05,17,0.00
2016,04,23,05,18,0.00
2016,04,23,05,19,0.00
2016,04,23,05,20,0.00
2016,04,23,05,21,0.00
2016,04,23,05,22,0.00
2016,04,23,05,23,0.00
2016,04,23,05,24,0.00
2016,04,23,05,25,0.00
2016,04,23,05,26,0.00
2016,04,23,05,27,0.00
2016,04,23,05,28,0.00
2016,04,23,05,29,0.00
2016,04,23,05,30,0.00
2016,04,23,05,31,0.00
2016,04,23,05,32,0.00
2016,04,23,05,33,0.00
2016,04,23,05,34,0.00
2016,04,23,05,35,0.00
2016,04,23,05,36,0.00
2016,04,23,05,37,0.00
2016,04,23,05,38,0.00
2016,04,23,05,39,0.00
2016,04,23,05,40,0.00
2016,04,23,05,41,0.00
2016,04,23,05,42,0.00
2016,04,23,05,43,0.00
2016,04,23,05,44,0.00
2016,04,23,05,45,0.00
2016,04,23,05,46,0.00
2016,04,23,05,47,0.00
2016,04,23,05,48,0.00
2016,04,23,05,49,0.00
2016,04,23,05,50,0.00
2016,04,23,05,51,0.00
2016,04,23,05,52,0.00
2016,04,23,05,53,0.00
2016,04,23,05,54,0.00
2016,04,23,05,55,0.00
2016,04,23,05,56,0.00
2016,04,23,05,57,0.00
2016,04,23,05,58,0.00
2016,04,23,05,59,0.00
2016,04,23,06,00,0.00
2016,04,23,06,01,0.00
2016,04,23,06,02,0.00
2016,04,23,06,03,0.00
2016,04,23,06,04,0.00
2016,04,23,06,05,0.00
2016,04,23,06,06,0.00
2016,04,23,06,07,0.00
2016,04,23,06,08,0.00
2016,04,23,06,09,0.00
2016,04,23,06,10,0.00
2016,04,23,06,11,0.00
2016,04,23,06,12,0.00
2016,04,23,06,13,0.00
2016,04,23,06,14,0.00
2016,04,23,06,15,2.00
2016,04,23,06,16,5.00
2016,04,23,06,17,5.00
2016,04,23,06,18,5.00
2016,04,23,06,19,5.00
2016,04,23,06,20,5.00
2016,04,23,06,21,5.00
2016,04,23,06,22,6.20
2016,04,23,06,23,7.00
2016,04,23,06,24,7.00
2016,04,23,06,25,7.00
2016,04,23,06,26,7.60
2016,04,23,06,27,9.00
2016,04,23,06,28,9.00
2016,04,23,06,29,10.60
2016,04,23,06,30,11.10
2016,04,23,06,31,12.00
2016,04,23,06,32,12.70
2016,04,23,06,33,14.00
2016,04,23,06,34,14.00
2016,04,23,06,35,15.60
2016,04,23,06,36,16.10
2016,04,23,06,37,18.20
2016,04,23,06,38,19.00
2016,04,23,06,39,20.00
2016,04,23,06,40,22.40
2016,04,23,06,41,23.00
2016,04,23,06,42,24.90
2016,04,23,06,43,25.20
2016,04,23,06,44,26.00
2016,04,23,06,45,27.10
2016,04,23,06,46,29.50
2016,04,23,06,47,30.00
2016,04,23,06,48,32.00
2016,04,23,06,49,33.00
2016,04,23,06,50,33.80
2016,04,23,06,51,36.20
2016,04,23,06,52,37.00
2016,04,23,06,53,38.70
2016,04,23,06,54,39.00
2016,04,23,06,55,39.30
2016,04,23,06,56,40.00
2016,04,23,06,57,41.20
2016,04,23,06,58,42.00
2016,04,23,06,59,43.80
2016,04,23,07,00,46.20
2016,04,23,07,01,47.70
2016,04,23,07,02,49.90
2016,04,23,07,03,52.20
2016,04,23,07,04,53.70
2016,04,23,07,05,55.80
2016,04,23,07,06,56.30
2016,04,23,07,07,58.00
2016,04,23,07,08,57.10
2016,04,23,07,09,56.00
2016,04,23,07,10,56.00
2016,04,23,07,11,56.00
2016,04,23,07,12,56.00
2016,04,23,07,13,56.70
2016,04,23,07,14,58.90
2016,04,23,07,15,60.00
2016,04,23,07,16,61.60
2016,04,23,07,17,63.10
2016,04,23,07,18,65.50
2016,04,23,07,19,67.80
2016,04,23,07,20,69.00
2016,04,23,07,21,69.70
2016,04,23,07,22,70.00
2016,04,23,07,23,70.00
2016,04,23,07,24,70.00
2016,04,23,07,25,70.00
2016,04,23,07,26,70.00
2016,04,23,07,27,70.00
2016,04,23,07,28,70.00
2016,04,23,07,29,70.00
2016,04,23,07,30,70.00
2016,04,23,07,31,70.80
2016,04,23,07,32,73.10
2016,04,23,07,33,75.50
2016,04,23,07,34,76.00
2016,04,23,07,35,77.00
2016,04,23,07,36,77.60
2016,04,23,07,37,80.80
2016,04,23,07,38,83.60
2016,04,23,07,39,85.40
2016,04,23,07,40,87.80
2016,04,23,07,41,90.00
2016,04,23,07,42,90.00
2016,04,23,07,43,88.20
2016,04,23,07,44,84.70
2016,04,23,07,45,81.80
2016,04,23,07,46,77.20
2016,04,23,07,47,73.70
2016,04,23,07,48,71.30
2016,04,23,07,49,70.00
2016,04,23,07,50,67.00
2016,04,23,07,51,61.20
2016,04,23,07,52,56.20
2016,04,23,07,53,54.40
2016,04,23,07,54,56.00
2016,04,23,07,55,68.50
2016,04,23,07,56,81.00
2016,04,23,07,57,194.60
2016,04,23,07,58,217.50
2016,04,23,07,59,205.80
2016,04,23,08,00,184.50
2016,04,23,08,01,146.70
2016,04,23,08,02,185.20
2016,04,23,08,03,173.70
2016,04,23,08,04,134.60
2016,04,23,08,05,123.00
2016,04,23,08,06,128.60
2016,04,23,08,07,107.30
2016,04,23,08,08,56.30
2016,04,23,08,09,45.60
2016,04,23,08,10,47.00
2016,04,23,08,11,66.50
2016,04,23,08,12,107.80
2016,04,23,08,13,93.80
2016,04,23,08,14,91.00
2016,04,23,08,15,77.90
2016,04,23,08,16,77.90
2016,04,23,08,17,128.10
2016,04,23,08,18,136.80
2016,04,23,08,19,156.00
2016,04,23,08,20,246.20
2016,04,23,08,21,274.10
2016,04,23,08,22,213.40
2016,04,23,08,23,211.00
2016,04,23,08,24,149.40
2016,04,23,08,25,84.10
2016,04,23,08,26,93.80
2016,04,23,08,27,73.20
2016,04,23,08,28,52.70
2016,04,23,08,29,69.30
2016,04,23,08,30,115.50
2016,04,23,08,31,151.20
2016,04,23,08,32,146.20
2016,04,23,08,33,116.00
2016,04,23,08,34,81.00
2016,04,23,08,35,63.30
2016,04,23,08,36,68.00
2016,04,23,08,37,64.50
2016,04,23,08,38,70.20
2016,04,23,08,39,158.30
2016,04,23,08,40,149.80
2016,04,23,08,41,194.20
2016,04,23,08,42,136.20
2016,04,23,08,43,120.90
2016,04,23,08,44,110.60
2016,04,23,08,45,75.70
2016,04,23,08,46,74.00
2016,04,23,08,47,74.00
2016,04,23,08,48,74.00
2016,04,23,08,49,278.40
2016,04,23,08,50,366.90
2016,04,23,08,51,369.40
2016,04,23,08,52,373.30
2016,04,23,08,53,376.50
2016,04,23,08,54,380.50
2016,04,23,08,55,382.40
2016,04,23,08,56,386.60
2016,04,23,08,57,388.60
2016,04,23,08,58,393.60
2016,04,23,08,59,398.60
2016,04,23,09,00,402.20
2016,04,23,09,01,405.20
2016,04,23,09,02,410.50
2016,04,23,09,03,413.80
2016,04,23,09,04,417.30
2016,04,23,09,05,418.90
2016,04,23,09,06,422.50
2016,04,23,09,07,426.20
2016,04,23,09,08,428.80
2016,04,23,09,09,428.60
2016,04,23,09,10,428.30
2016,04,23,09,11,431.00
2016,04,23,09,12,434.20
2016,04,23,09,13,437.60
2016,04,23,09,14,437.90
2016,04,23,09,15,437.40
2016,04,23,09,16,443.00
2016,04,23,09,17,444.50
2016,04,23,09,18,451.10
2016,04,23,09,19,450.80
2016,04,23,09,20,454.70
2016,04,23,09,21,454.80
2016,04,23,09,22,455.80
2016,04,23,09,23,460.00
2016,04,23,09,24,463.10
2016,04,23,09,25,465.70
2016,04,23,09,26,466.10
2016,04,23,09,27,451.20
2016,04,23,09,28,450.80
2016,04,23,09,29,445.00
2016,04,23,09,30,440.20
2016,04,23,09,31,448.20
2016,04,23,09,32,463.10
2016,04,23,09,33,478.60
2016,04,23,09,34,489.20
2016,04,23,09,35,494.30
2016,04,23,09,36,507.20
2016,04,23,09,37,452.10
2016,04,23,09,38,401.00
2016,04,23,09,39,390.00
2016,04,23,09,40,390.00
2016,04,23,09,41,414.30
2016,04,23,09,42,446.00
2016,04,23,09,43,503.70
2016,04,23,09,44,466.80
2016,04,23,09,45,433.10
2016,04,23,09,46,447.50
2016,04,23,09,47,449.30
2016,04,23,09,48,476.50
2016,04,23,09,49,475.20
2016,04,23,09,50,491.20
2016,04,23,09,51,493.90
2016,04,23,09,52,519.70
2016,04,23,09,53,521.90
2016,04,23,09,54,526.00
2016,04,23,09,55,533.30
2016,04,23,09,56,531.40
2016,04,23,09,57,540.60
2016,04,23,09,58,540.00
2016,04,23,09,59,533.10
2016,04,23,10,00,545.80
2016,04,23,10,01,562.00
2016,04,23,10,02,561.50
2016,04,23,10,03,550.20
2016,04,23,10,04,527.20
2016,04,23,10,05,538.80
2016,04,23,10,06,518.60
2016,04,23,10,07,513.70
2016,04,23,10,08,519.20
2016,04,23,10,09,533.00
2016,04,23,10,10,561.00
2016,04,23,10,11,566.00
2016,04,23,10,12,367.10
2016,04,23,10,13,332.00
2016,04,23,10,14,338.90
2016,04,23,10,15,355.00
2016,04,23,10,16,481.60
2016,04,23,10,17,568.90
2016,04,23,10,18,570.00
2016,04,23,10,19,227.00
2016,04,23,10,20,318.60
2016,04,23,10,21,512.00
2016,04,23,10,22,519.30
2016,04,23,10,23,522.70
2016,04,23,10,24,526.80
2016,04,23,10,25,535.20
2016,04,23,10,26,525.60
2016,04,23,10,27,525.10
2016,04,23,10,28,514.20
2016,04,23,10,29,521.60
2016,04,23,10,30,541.60
2016,04,23,10,31,571.00
2016,04,23,10,32,571.70
2016,04,23,10,33,576.20
2016,04,23,10,34,583.00
2016,04,23,10,35,581.10
2016,04,23,10,36,580.00
2016,04,23,10,37,598.10
2016,04,23,10,38,606.00
2016,04,23,10,39,606.00
2016,04,23,10,40,606.00
2016,04,23,10,41,594.90
2016,04,23,10,42,578.50
2016,04,23,10,43,584.00
2016,04,23,10,44,592.10
2016,04,23,10,45,606.00
2016,04,23,10,46,606.00
2016,04,23,10,47,622.80
2016,04,23,10,48,633.00
2016,04,23,10,49,630.30
2016,04,23,10,50,615.00
2016,04,23,10,51,612.60
2016,04,23,10,52,610.90
2016,04,23,10,53,594.80
2016,04,23,10,54,601.00
2016,04,23,10,55,603.90
2016,04,23,10,56,612.00
2016,04,23,10,57,617.20
2016,04,23,10,58,628.00
2016,04,23,10,59,635.00
2016,04,23,11,00,630.70
2016,04,23,11,01,626.60
2016,04,23,11,02,622.30
2016,04,23,11,03,622.80
2016,04,23,11,04,615.20
2016,04,23,11,05,579.00
2016,04,23,11,06,617.20
2016,04,23,11,07,629.20
2016,04,23,11,08,641.00
2016,04,23,11,09,647.00
2016,04,23,11,10,647.00
2016,04,23,11,11,625.40
2016,04,23,11,12,244.60
2016,04,23,11,13,277.20
2016,04,23,11,14,274.00
2016,04,23,11,15,517.80
2016,04,23,11,16,637.90
2016,04,23,11,17,650.30
2016,04,23,11,18,652.00
2016,04,23,11,19,652.00
2016,04,23,11,20,680.00
2016,04,23,11,21,709.40
2016,04,23,11,22,694.80
2016,04,23,11,23,666.10
2016,04,23,11,24,654.40
2016,04,23,11,25,660.00
2016,04,23,11,26,681.80
2016,04,23,11,27,703.20
2016,04,23,11,28,727.20
2016,04,23,11,29,768.20
2016,04,23,11,30,792.20
2016,04,23,11,31,807.90
2016,04,23,11,32,816.00
2016,04,23,11,33,816.00
2016,04,23,11,34,695.60
2016,04,23,11,35,673.00
2016,04,23,11,36,688.80
2016,04,23,11,37,733.00
2016,04,23,11,38,733.00
2016,04,23,11,39,437.60
2016,04,23,11,40,327.10
2016,04,23,11,41,366.00
2016,04,23,11,42,414.30
2016,04,23,11,43,527.00
2016,04,23,11,44,408.80
2016,04,23,11,45,357.80
2016,04,23,11,46,339.30
2016,04,23,11,47,362.70
2016,04,23,11,48,389.10
2016,04,23,11,49,415.00
2016,04,23,11,50,611.20
2016,04,23,11,51,729.40
2016,04,23,11,52,771.90
2016,04,23,11,53,777.00
2016,04,23,11,54,777.00
2016,04,23,11,55,662.00
2016,04,23,11,56,576.70
2016,04,23,11,57,585.00
2016,04,23,11,58,555.50
2016,04,23,11,59,554.00
2016,04,23,12,00,452.80
2016,04,23,12,01,303.60
2016,04,23,12,02,321.60
2016,04,23,12,03,330.00
2016,04,23,12,04,330.00
2016,04,23,12,05,330.00
2016,04,23,12,06,326.50
2016,04,23,12,07,315.50
2016,04,23,12,08,307.50
2016,04,23,12,09,313.60
2016,04,23,12,10,303.60
2016,04,23,12,11,295.50
2016,04,23,12,12,298.70
2016,04,23,12,13,303.80
2016,04,23,12,14,309.50
2016,04,23,12,15,328.00
2016,04,23,12,16,330.00
2016,04,23,12,17,471.60
2016,04,23,12,18,818.80
2016,04,23,12,19,871.20
2016,04,23,12,20,895.00
2016,04,23,12,21,426.20
2016,04,23,12,22,369.10
2016,04,23,12,23,390.20
2016,04,23,12,24,410.00
2016,04,23,12,25,641.60
2016,04,23,12,26,786.90
2016,04,23,12,27,741.10
2016,04,23,12,28,719.20
2016,04,23,12,29,662.30
2016,04,23,12,30,653.20
2016,04,23,12,31,588.60
2016,04,23,12,32,568.00
2016,04,23,12,33,399.40
2016,04,23,12,34,397.50
2016,04,23,12,35,408.10
2016,04,23,12,36,382.90
2016,04,23,12,37,371.10
2016,04,23,12,38,353.10
2016,04,23,12,39,342.80
2016,04,23,12,40,331.40
2016,04,23,12,41,329.00
2016,04,23,12,42,334.30
2016,04,23,12,43,341.60
2016,04,23,12,44,350.20
2016,04,23,12,45,346.50
2016,04,23,12,46,346.90
2016,04,23,12,47,339.10
2016,04,23,12,48,325.40
2016,04,23,12,49,311.80
2016,04,23,12,50,302.40
2016,04,23,12,51,297.00
2016,04,23,12,52,298.20
2016,04,23,12,53,304.80
2016,04,23,12,54,315.60
2016,04,23,12,55,325.20
2016,04,23,12,56,333.00
2016,04,23,12,57,339.40
2016,04,23,12,58,342.40
2016,04,23,12,59,340.20
2016,04,23,13,00,344.00
2016,04,23,13,01,349.50
2016,04,23,13,02,348.30
2016,04,23,13,03,346.30
2016,04,23,13,04,348.00
2016,04,23,13,05,346.70
2016,04,23,13,06,341.00
2016,04,23,13,07,331.40
2016,04,23,13,08,320.90
2016,04,23,13,09,309.60
2016,04,23,13,10,299.90
2016,04,23,13,11,294.50
2016,04,23,13,12,294.00
2016,04,23,13,13,297.70
2016,04,23,13,14,305.60
2016,04,23,13,15,314.40
2016,04,23,13,16,323.10
2016,04,23,13,17,332.30
2016,04,23,13,18,339.20
2016,04,23,13,19,344.90
2016,04,23,13,20,352.20
2016,04,23,13,21,362.70
2016,04,23,13,22,374.80
2016,04,23,13,23,381.70
2016,04,23,13,24,397.40
2016,04,23,13,25,412.90
2016,04,23,13,26,408.60
2016,04,23,13,27,409.00
2016,04,23,13,28,406.70
2016,04,23,13,29,408.00
2016,04,23,13,30,396.80
2016,04,23,13,31,382.70
2016,04,23,13,32,380.40
2016,04,23,13,33,387.50
2016,04,23,13,34,413.60
2016,04,23,13,35,434.20
2016,04,23,13,36,443.60
2016,04,23,13,37,498.70
2016,04,23,13,38,509.30
2016,04,23,13,39,500.90
2016,04,23,13,40,524.60
2016,04,23,13,41,515.60
2016,04,23,13,42,511.40
2016,04,23,13,43,581.00
2016,04,23,13,44,675.00
2016,04,23,13,45,669.30
2016,04,23,13,46,618.90
2016,04,23,13,47,565.60
2016,04,23,13,48,574.50
2016,04,23,13,49,608.40
2016,04,23,13,50,682.60
2016,04,23,13,51,734.30
2016,04,23,13,52,720.30
2016,04,23,13,53,743.20
2016,04,23,13,54,808.80
2016,04,23,13,55,804.60
2016,04,23,13,56,723.20
2016,04,23,13,57,690.50
2016,04,23,13,58,663.20
2016,04,23,13,59,636.80
2016,04,23,14,00,635.00
2016,04,23,14,01,758.20
2016,04,23,14,02,765.00
2016,04,23,14,03,771.00
2016,04,23,14,04,778.30
2016,04,23,14,05,762.70
2016,04,23,14,06,760.00
2016,04,23,14,07,745.10
2016,04,23,14,08,731.00
2016,04,23,14,09,752.40
2016,04,23,14,10,747.70
2016,04,23,14,11,765.70
2016,04,23,14,12,749.30
2016,04,23,14,13,748.60
2016,04,23,14,14,737.00
2016,04,23,14,15,725.40
2016,04,23,14,16,698.20
2016,04,23,14,17,678.40
2016,04,23,14,18,665.40
2016,04,23,14,19,641.20
2016,04,23,14,20,645.50
2016,04,23,14,21,667.40
2016,04,23,14,22,706.50
2016,04,23,14,23,723.80
2016,04,23,14,24,701.60
2016,04,23,14,25,683.20
2016,04,23,14,26,646.20
2016,04,23,14,27,635.80
2016,04,23,14,28,647.40
2016,04,23,14,29,615.00
2016,04,23,14,30,636.00
2016,04,23,14,31,671.60
2016,04,23,14,32,686.50
2016,04,23,14,33,708.90
2016,04,23,14,34,668.90
2016,04,23,14,35,615.00
2016,04,23,14,36,567.60
2016,04,23,14,37,621.60
2016,04,23,14,38,684.00
2016,04,23,14,39,653.20
2016,04,23,14,40,619.00
2016,04,23,14,41,718.50
2016,04,23,14,42,730.50
2016,04,23,14,43,689.10
2016,04,23,14,44,645.20
2016,04,23,14,45,612.00
2016,04,23,14,46,525.10
2016,04,23,14,47,557.00
2016,04,23,14,48,604.50
2016,04,23,14,49,545.50
2016,04,23,14,50,507.00
2016,04,23,14,51,494.60
2016,04,23,14,52,501.90
2016,04,23,14,53,518.40
2016,04,23,14,54,571.30
2016,04,23,14,55,649.80
2016,04,23,14,56,702.10
2016,04,23,14,57,713.80
2016,04,23,14,58,725.80
2016,04,23,14,59,705.60
2016,04,23,15,00,678.30
2016,04,23,15,01,624.00
2016,04,23,15,02,566.90
2016,04,23,15,03,550.10
2016,04,23,15,04,515.60
2016,04,23,15,05,534.30
2016,04,23,15,06,497.60
2016,04,23,15,07,477.40
2016,04,23,15,08,435.60
2016,04,23,15,09,451.00
2016,04,23,15,10,500.30
2016,04,23,15,11,431.00
2016,04,23,15,12,429.90
2016,04,23,15,13,505.10
2016,04,23,15,14,509.00
2016,04,23,15,15,533.30
2016,04,23,15,16,598.30
2016,04,23,15,17,586.20
2016,04,23,15,18,508.70
2016,04,23,15,19,463.20
2016,04,23,15,20,459.20
2016,04,23,15,21,403.10
2016,04,23,15,22,386.30
2016,04,23,15,23,396.80
2016,04,23,15,24,442.80
2016,04,23,15,25,492.20
2016,04,23,15,26,524.00
2016,04,23,15,27,578.50
2016,04,23,15,28,647.60
2016,04,23,15,29,679.30
2016,04,23,15,30,642.80
2016,04,23,15,31,626.80
2016,04,23,15,32,606.30
2016,04,23,15,33,563.20
2016,04,23,15,34,610.90
2016,04,23,15,35,593.40
2016,04,23,15,36,562.30
2016,04,23,15,37,575.40
2016,04,23,15,38,570.40
2016,04,23,15,39,517.60
2016,04,23,15,40,533.40
2016,04,23,15,41,541.00
2016,04,23,15,42,522.70
2016,04,23,15,43,459.40
2016,04,23,15,44,420.20
2016,04,23,15,45,365.80
2016,04,23,15,46,351.80
2016,04,23,15,47,349.60
2016,04,23,15,48,359.90
2016,04,23,15,49,393.00
2016,04,23,15,50,437.90
2016,04,23,15,51,455.00
2016,04,23,15,52,469.70
2016,04,23,15,53,471.80
2016,04,23,15,54,451.90
2016,04,23,15,55,470.40
2016,04,23,15,56,490.80
2016,04,23,15,57,532.00
2016,04,23,15,58,520.90
2016,04,23,15,59,444.80
2016,04,23,16,00,417.40
2016,04,23,16,01,376.50
2016,04,23,16,02,350.80
2016,04,23,16,03,342.00
2016,04,23,16,04,305.30
2016,04,23,16,05,291.50
2016,04,23,16,06,289.30
2016,04,23,16,07,295.00
2016,04,23,16,08,295.50
2016,04,23,16,09,288.10
2016,04,23,16,10,283.90
2016,04,23,16,11,287.50
2016,04,23,16,12,278.40
2016,04,23,16,13,282.20
2016,04,23,16,14,286.30
2016,04,23,16,15,270.00
2016,04,23,16,16,256.80
2016,04,23,16,17,255.00
2016,04,23,16,18,255.00
2016,04,23,16,19,252.10
2016,04,23,16,20,254.90
2016,04,23,16,21,247.70
2016,04,23,16,22,253.30
2016,04,23,16,23,254.50
2016,04,23,16,24,253.00
2016,04,23,16,25,258.40
2016,04,23,16,26,268.60
2016,04,23,16,27,273.50
2016,04,23,16,28,277.00
2016,04,23,16,29,272.60
2016,04,23,16,30,272.90
2016,04,23,16,31,265.80
2016,04,23,16,32,261.00
2016,04,23,16,33,260.00
2016,04,23,16,34,259.60
2016,04,23,16,35,256.40
2016,04,23,16,36,252.00
2016,04,23,16,37,252.30
2016,04,23,16,38,253.00
2016,04,23,16,39,253.20
2016,04,23,16,40,257.00
2016,04,23,16,41,260.80
2016,04,23,16,42,279.50
2016,04,23,16,43,288.10
2016,04,23,16,44,281.00
2016,04,23,16,45,278.50
2016,04,23,16,46,268.00
2016,04,23,16,47,264.40
2016,04,23,16,48,269.70
2016,04,23,16,49,274.00
2016,04,23,16,50,290.00
2016,04,23,16,51,293.60
2016,04,23,16,52,289.50
2016,04,23,16,53,282.80
2016,04,23,16,54,271.20
2016,04,23,16,55,260.80
2016,04,23,16,56,252.20
2016,04,23,16,57,249.80
2016,04,23,16,58,247.50
2016,04,23,16,59,247.70
2016,04,23,17,00,246.70
2016,04,23,17,01,243.30
2016,04,23,17,02,241.30
2016,04,23,17,03,235.90
2016,04,23,17,04,232.90
2016,04,23,17,05,245.10
2016,04,23,17,06,247.70
2016,04,23,17,07,229.90
2016,04,23,17,08,216.80
2016,04,23,17,09,216.90
2016,04,23,17,10,211.00
2016,04,23,17,11,205.80
2016,04,23,17,12,198.20